{"data":{"norad_id":53484,"epoch":"2026-09-20T06:13:35.978880Z","epoch_age_seconds":99805,"freshness":"FRESH","line1":"1 53484U 22099V   26263.25944420  .00000705  00000+0  24167-4 0  9990","line2":"2 53484  97.2862  20.9554 0000997  96.8448 263.2908 15.33435060225514","mean_motion":15.3343506,"eccentricity":9.97e-5,"inclination_deg":97.2862,"raan_deg":20.9554,"arg_perigee_deg":96.8448,"mean_anomaly_deg":263.2908,"bstar":2.4167e-5,"rev_number":22551,"period_min":93.906813373629,"perigee_km":464.89043122252,"apogee_km":466.25506694649,"semimajor_km":6843.7097490845,"source":"CELESTRAK","updated_at":"2026-09-21T09:00:32.891149Z"}}